Location: Brad
(46.1333°N, 22.7833°E)
Time: 04:43:39
(UTC+00:00)

CZ-4 R/B - Pass Details

Date: 03 February 2023
Orbit: 526 x 586 km, 97.7° (Epoch: 29 March)

Event Time Altitude Azimuth Distance (km) Brightness Sun altitude
Rises 16:26:26 0° 128° (SE) 2,801 4.6 -9.0°
Reaches altitude 10° 16:29:03 10° 111° (ESE) 1,898 3.6 -9.5°
Maximum altitude 16:32:00 20° 65° (ENE) 1,382 2.7 -10.0°
Drops below altitude 10° 16:34:57 10° 18° (NNE) 1,885 3.7 -10.5°
Sets 16:37:32 0° 1° (N) 2,775 4.8 -10.9°
